Regional Weather Roundup
Issued by NWS

Home | Current Version | Previous Version | Text Only | Print | Product List | Glossary On
Versions: 1 2 3 4 5 6 7 8 9 10 11 12 13 14 15 16 17 18 19 20 21 22 23 24 25 26 27 28 29 30 31 32 33 34 35 36 37 38 39 40 41 42 43 44 45 46 47 48 49 50
000
ASUS45 KBOI 280810
RWRID
WEATHER ROUNDUP FOR IDAHO
NATIONAL WEATHER SERVICE BOISE ID
200 AM MDT THU AUG 28 2014

NOTE: "FAIR" INDICATES FEW OR NO CLOUDS BELOW 12000 FEET
WITH NO SIGNIFICANT WEATHER AND/OR OBSTRUCTIONS TO VISIBILITY

IDZ012-014-280900-
SOUTHWEST IDAHO


CITY           SKY/WX    TMP DP  RH WIND       PRES   REMARKS
BOISE          CLEAR     70  41  34 SE10      30.03S
CALDWELL       CLEAR     61  41  48 E3        30.03S
MOUNTAIN HOME  CLEAR     62  37  39 E6        30.06S
$$

IDZ016-017-280900-
SOUTHCENTRAL IDAHO


CITY           SKY/WX    TMP DP  RH WIND       PRES   REMARKS
BURLEY         CLEAR     60  50  69 S10       30.14S
JEROME         CLEAR     60  49  66 SE7       30.13F
TWIN FALLS     CLEAR     63  48  58 S12       30.13F
$$

IDZ019>023-280900-
SOUTHEAST IDAHO


CITY           SKY/WX    TMP DP  RH WIND       PRES   REMARKS
IDAHO FALLS    CLEAR     57  49  74 SW8       30.18S
POCATELLO      CLEAR     60  49  66 E3        30.18S
REXBURG        CLEAR     56  47  71 N3        30.19R
$$

IDZ006-010-011-018-031-032-280900-
CENTRAL IDAHO MOUNTAINS


CITY           SKY/WX    TMP DP  RH WIND       PRES   REMARKS
MCCALL         CLEAR     52  42  69 CALM      30.18S
HAILEY         CLEAR     55  45  67 NW9       30.23S
STANLEY          N/A     43  37  79 CALM      30.31S
SALMON         CLEAR     54  46  76 CALM      30.14S
CHALLIS        CLEAR     56  43  61 N3        30.20R
$$

IDZ002-004-006-007-026-280900-
NORTHERN IDAHO


CITY           SKY/WX    TMP DP  RH WIND       PRES   REMARKS
LEWISTON       CLEAR     73  48  41 CALM      29.93S
LOWELL           N/A     59  54  83 NW3       30.03R
COEUR D`ALENE  CLEAR     64  50  59 SE7       29.94F
MULLAN PASS    CLEAR     61  41  47 SW9       30.17F
$$


USA.gov is the U.S. government's official web portal to all federal, state and local government web resources and services.